Columbia, SC

3:28 AM EDT on May 25, 2017 (GMT -0400)
Columbia Metro

Weather History for KCAE - May, 2013

Change the Weather History Date:

Tuesday, May 7, 2013

  Actual Average Record
Temperature  
Mean Temperature 62 °F 69 °F  
Max Temperature 72 °F 82 °F 96 °F (1977)
Min Temperature 51 °F 57 °F 42 °F (1968)
Degree Days  
Heating Degree Days 3 1  
Month to date heating degree days 11 9  
Since 1 July heating degree days 2252 2540  
Cooling Degree Days 0 5  
Month to date cooling degree days 4 32  
Year to date cooling degree days 132 127  
Growing Degree Days 12 (Base 50)    
Moisture  
Dew Point 51 °F    
Average Humidity 70    
Maximum Humidity 89    
Minimum Humidity 51    
Precipitation  
Precipitation 0.03 in 0.09 in 2.05 in (1917)
Month to date precipitation 2.31 0.65  
Year to date precipitation 17.31 14.19  
Sea Level Pressure  
Sea Level Pressure 29.92 in    
Wind  
Wind Speed 3 mph (SSW)    
Max Wind Speed 14 mph    
Max Gust Speed 20 mph    
Visibility 10 miles    
Events Rain    
T = Trace of Precipitation, MM = Missing Value Source: NWS Daily Summary

Daily Weather History Graph

Daily Weather History Graph

Search for Another Location

Airport or City:

Trip Planner

Search our weather history database for the weather conditions in past years. The results will help you decide how hot, cold, wet, or windy it might be!

Date:

Astronomy

May. 07, 2013 Rise Set
Actual Time 6:29 AM EDT 8:13 PM EDT
Civil Twilight 6:02 AM EDT 8:40 PM EDT
Nautical Twilight 5:29 AM EDT 9:12 PM EDT
Astronomical Twilight 4:55 AM EDT 9:47 PM EDT
Moon 4:56 AM EDT (5/7) 6:15 PM EDT (5/7)
Length of Visible Light 14h 37m
Length of Day
13h 43m
Waning Crescent, 5% of the Moon is Illuminated
May 7
Waning Crescent
May 9
New
May 18
First Quarter
May 25
Full
May 31
Last Quarter

Hourly Weather History & Observations

Time (EDT) Temp. Dew Point Humidity Pressure Visibility Wind Dir Wind Speed Gust Speed Precip Events Conditions
12:56 AM 54.0 °F 48.9 °F 83% 29.93 in 10.0 mi Calm Calm - N/A   Scattered Clouds
1:56 AM 54.0 °F 48.9 °F 83% 29.91 in 10.0 mi Calm Calm - N/A   Scattered Clouds
2:56 AM 52.0 °F 48.9 °F 89% 29.89 in 10.0 mi Calm Calm - N/A   Scattered Clouds
3:56 AM 52.0 °F 48.0 °F 86% 29.89 in 10.0 mi Calm Calm - N/A   Scattered Clouds
4:56 AM 51.1 °F 48.0 °F 89% 29.89 in 8.0 mi Calm Calm - N/A   Scattered Clouds
5:56 AM 53.1 °F 48.0 °F 83% 29.89 in 10.0 mi Calm Calm - N/A   Overcast
6:56 AM 52.0 °F 48.0 °F 86% 29.91 in 9.0 mi South 3.5 mph - N/A   Overcast
7:56 AM 53.1 °F 48.9 °F 86% 29.93 in 10.0 mi Calm Calm - N/A   Overcast
8:56 AM 54.0 °F 50.0 °F 86% 29.94 in 6.0 mi Calm Calm - N/A   Overcast
9:56 AM 55.0 °F 51.1 °F 86% 29.96 in 5.0 mi Calm Calm - 0.02 in Rain Light Rain
10:56 AM 60.1 °F 55.0 °F 83% 29.94 in 10.0 mi Calm Calm - 0.01 in   Mostly Cloudy
11:56 AM 64.0 °F 54.0 °F 70% 29.94 in 10.0 mi SSE 3.5 mph - N/A   Scattered Clouds
12:56 PM 68.0 °F 51.1 °F 55% 29.93 in 10.0 mi Variable 4.6 mph - N/A   Mostly Cloudy
1:56 PM 69.1 °F 53.1 °F 57% 29.91 in 10.0 mi South 5.8 mph - N/A   Mostly Cloudy
2:56 PM 69.1 °F 50.0 °F 51% 29.90 in 10.0 mi East 4.6 mph - N/A   Mostly Cloudy
3:56 PM 70.0 °F 53.1 °F 55% 29.89 in 10.0 mi SSW 11.5 mph - 0.00 in   Mostly Cloudy
4:56 PM 69.1 °F 51.1 °F 53% 29.88 in 10.0 mi SE 6.9 mph - N/A   Scattered Clouds
5:56 PM 69.8 °F 51.8 °F 53% 29.90 in 10.0 mi SW 3.5 mph - N/A   Scattered Clouds
6:56 PM 70.0 °F 54.0 °F 57% 29.90 in 10.0 mi SW 3.5 mph - 0.00 in Rain Light Rain
7:56 PM 66.0 °F 53.1 °F 63% 29.92 in 10.0 mi NE 4.6 mph - 0.00 in   Scattered Clouds
8:56 PM 63.0 °F 54.0 °F 72% 29.94 in 10.0 mi Calm Calm - N/A   Scattered Clouds
9:56 PM 62.1 °F 55.0 °F 78% 29.96 in 10.0 mi Calm Calm - N/A   Scattered Clouds
10:56 PM 60.1 °F 54.0 °F 80% 29.97 in 10.0 mi West 3.5 mph - N/A   Scattered Clouds
11:56 PM 60.1 °F 52.0 °F 75% 29.96 in 10.0 mi WSW 4.6 mph - N/A   Scattered Clouds